Home   Weather   Gütersloh   Past weeks

Flag for Germany Past Weather in Gütersloh, North Rhine-Westphalia, Germany — Yesterday and Last 2 Weeks

Now
59 °F

Clear.


Feels Like: 59 °F
Forecast: 54 / 75 °F
Wind: 2 mph from North

Location: Paderborn / Lippstadt

Current Time: Sep 1, 2016 at 3:53:44 AM

Latest Report: Sep 1, 2016 at 3:20 AM


Visibility: 10 mi

Pressure: 30.15 "Hg

Humidity: 77%

Dew Point: 52 °F

Location of GüterslohLocation

Past Weather in Gütersloh — Graph

°F

Gütersloh Temperature Yesterday

Maximum temperature yesterday: 81 °F (at 4:50 PM)
Minimum temperature yesterday: 54 °F (at 12:50 AM)
Average temperature yesterday: 67 °F

High & Low Weather Summary for the Past Weeks

 TemperatureHumidityPressure
High91 °F (Aug 25, 4:20 PM)100% (Aug 27, 5:20 AM)30.36 "Hg (Aug 27, 5:20 AM)
Low48 °F (Aug 17, 5:20 AM)17% (Aug 25, 4:50 PM)29.80 "Hg (Aug 18, 3:50 PM)
Average68 °F62%30.07 "Hg
* Reported Aug 17 2:20 AM — Sep 1 2:20 AM, Gütersloh, Weather by CustomWeather, © 2016

Note: Actual official high and low records may vary slightly from our data, if they occured in-between our weather recording intervals... More about our weather records

Advertising

Gütersloh Weather History for the Previous 24 Hours

Scroll right to see more
 ConditionsComfort  
Time TempWeatherWind HumidityBarometerVisibility
2:20 AM
Thu, Sep 1
61 °FClear.3 mph72%30.15 "Hg10 mi
1:50 AM61 °FClear.3 mph72%30.15 "Hg10 mi
1:20 AM63 °FPassing clouds.3 mph68%30.15 "HgN/A
12:50 AM64 °FClear.3 mph64%30.15 "Hg10 mi
12:20 AM64 °FClear.6 mph64%30.15 "Hg10 mi
11:50 PM
Wed, Aug 31
66 °FClear.5 mph60%30.15 "Hg10 mi
11:20 PM64 °FClear.6 mph64%30.15 "Hg10 mi
10:50 PM64 °FClear.6 mph64%30.15 "Hg10 mi
10:20 PM66 °FPassing clouds.3 mph60%30.12 "HgN/A
9:50 PM66 °FClear.3 mph60%30.12 "Hg10 mi
9:20 PM66 °FClear.3 mph60%30.12 "Hg10 mi
8:50 PM70 °FSunny.2 mph50%30.12 "Hg10 mi
8:20 PM73 °FPassing clouds.3 mph44%30.12 "HgN/A
7:50 PM75 °FPassing clouds.6 mph41%30.09 "HgN/A
7:20 PM77 °FPassing clouds.5 mph42%30.09 "HgN/A
6:50 PM77 °FPassing clouds.7 mph42%30.09 "HgN/A
6:20 PM79 °FPassing clouds.8 mph37%30.09 "HgN/A
5:50 PM79 °FSunny.7 mph37%30.09 "Hg10 mi
5:20 PM79 °FPassing clouds.7 mph37%30.12 "HgN/A
4:50 PM81 °FPassing clouds.6 mph34%30.09 "HgN/A
4:20 PM79 °FPassing clouds.9 mph37%30.12 "HgN/A
3:50 PM79 °FPassing clouds.10 mph39%30.12 "HgN/A
3:20 PM79 °FPassing clouds.8 mph37%30.12 "HgN/A
2:50 PM77 °FPassing clouds.7 mph39%30.12 "HgN/A
2:20 PM77 °FSunny.10 mph39%30.12 "Hg10 mi
1:50 PM79 °FPassing clouds.9 mph37%30.15 "HgN/A
1:20 PM77 °FSunny.9 mph39%30.15 "Hg10 mi
12:50 PM75 °FPassing clouds.7 mph41%30.15 "HgN/A
12:20 PM75 °FSunny.6 mph41%30.15 "Hg10 mi
11:50 AM75 °FPassing clouds.8 mph41%30.15 "HgN/A
11:20 AM73 °FPassing clouds.8 mph44%30.15 "HgN/A
10:50 AM72 °FPassing clouds.8 mph47%30.15 "HgN/A
10:20 AM70 °FPassing clouds.7 mph46%30.18 "HgN/A
9:50 AM68 °FSunny.7 mph49%30.18 "Hg10 mi
9:20 AM66 °FPassing clouds.6 mph49%30.18 "HgN/A
8:50 AM64 °FSunny.7 mph52%30.18 "Hg10 mi
8:20 AM61 °FSunny.6 mph55%30.18 "Hg10 mi
7:50 AM59 °FSunny.8 mph59%30.18 "Hg10 mi
7:20 AM59 °FClear.7 mph59%30.18 "Hg10 mi
6:50 AM57 °FClear.3 mph59%30.18 "Hg10 mi
6:20 AM57 °FClear.8 mph63%30.18 "Hg10 mi
5:50 AM57 °FClear.6 mph63%30.18 "Hg10 mi
5:20 AM57 °FClear.7 mph63%30.18 "Hg10 mi
4:50 AM57 °FClear.6 mph63%30.21 "Hg10 mi
4:20 AM55 °FClear.5 mph67%30.21 "Hg10 mi
3:50 AM54 °FClear.5 mph72%30.21 "Hg10 mi
3:20 AM54 °FClear.5 mph72%30.21 "Hg10 mi
Weather by CustomWeather, © 2016

See weather overviewHow to use our weather pages